Location: Unspecified
(0.0000°N, 0.0000°E)
Time: 14:05:26
(UTC+00:00)

Vanguard 2 Rocket - Pass Details

Date: 25 November 2019
Orbit: 554 x 3326 km, 32.9° (Epoch: 08 December)

Event Time Altitude Azimuth Distance (km) Brightness Sun altitude
Rises 07:48:38 0° 293° (WNW) 4,522 9.9 28.3°
Reaches altitude 10° 07:51:11 10° 289° (WNW) 3,836 9.6 28.9°
Maximum altitude 08:01:49 60° 211° (SSW) 2,593 9.6 31.3°
Drops below altitude 10° 08:19:40 10° 135° (SE) 6,091 12.3 35.3°
Sets 08:25:01 0° 131° (SE) 7,266 12.4 36.5°
